Voltar ao catálogo

STARLINK-3631

AtivoComunicaçõesVLEO
NORAD 51790·PAYLOAD·🇺🇸 United States

Lançado Feb 25, 2022 de Vandenberg Space Force Base

Loading…

Próximas Passagens (próximas 24 horas)

TLE

AtualizadoSource: CelesTrak SupGP

Época: Sep 14, 2026, 20:50 UTC

1 51790C 22017Y   26257.86854167  .00038615  00000+0  22787-2 0  2578
2 51790  53.2114 219.0681 0002702  85.2120 191.9914 15.11023995    17

Acompanhe STARLINK-3631 em tempo real com AllMySat

Download on the App Store